User: anonymous   Login
Location: Unspecified
(0.0000°N, 0.0000°E)
Time: 20:10:24
(UTC+00:00)
Language:

NNS O-2 - Orbit

View from above orbital plane
View from above orbital plane
View from above satellite
View from above satellite

Ground track
Ground track

The orbit data is extracted from the following two-line orbital elements,

1 00965U 64083D   18114.82092601  .00000033  00000-0  33654-4 0  9995
2 00965  90.0167 192.1373 0039502 338.9422 142.5149 13.56715547640719
Epoch (UTC): 24 April 2018 19:42:08
Eccentricity: 0.0039502
inclination: 90.0167°
perigee height: 1018 km
apogee height: 1077 km
right ascension of ascending node: 192.1373°
argument of perigee: 338.9422°
revolutions per day: 13.56715547
mean anomaly at epoch: 142.5149°
orbit number at epoch: 64071

The dashed part of the orbit path shows where the satellite is in the earth's shadow,  

DLR